Current weather by "City, St" or "zip code"  
 
Advertise Here

Current Conditions: Holloman Air Force Base, NM

Fair


99.0 F

Last Updated on Aug 4 2020, 3:58 pm MDT
Humidity: 17%
Wind Speed: W 6.9 mph
Barometer 30.03 in
Dewpoint: 46.4 F
Visibility: 10.00 mi
Precip: --
Heat Index: 95 F
Wind Chill: NA
Current conditions at:

Holloman Air Force Base, NM (KHMN)

Lat: 32.85 Lon: 106.1

Local Radar Image active severe weather and emergency alerts image image weather storm and storm spotter reports image weather observation monitoring service image
Local
Radar
Active
Alerts
Storm Reports Obs
Monitoring

Sign-up For Email & Text Message Weather Alert Notification Services


Advertise Here

Observation History for Holloman Air Force Base, NM


Time Wind
(mph)
Vis
(mi)
Weather Precip (in) Temperature (F) Relative
Humidity
Wind
Chill
(F)
Heat
Index
(F)
Pressure
Air Dwpt altimeter
(in)
sea level
(mb)
Rmks
3:58 pm MDT W 6.9 10.00 Fair -- 99.0 46.4 17% NA 95 30.03 1008.9
2:58 pm MDT N 9.2 10.00 Fair -- 97.0 45.1 17% NA 93 30.06 1009.9
1:58 pm MDT W 8.1 10.00 Fair -- 96.0 46.0 18% NA 92 30.09 1010.8
12:58 pm MDT W 5.8 10.00 Fair -- 95.0 50.0 22% NA 92 30.12 1011.9
11:58 am MDT N 0.0 10.00 Fair -- 91.0 51.6 26% NA 88 30.13 1012.4
10:56 am MDT N 0.0 10.00 Fair -- 88.0 51.6 29% NA 86 30.14 1012.9
9:58 am MDT W 3.5 10.00 Fair -- 85.0 52.2 32% NA 83 30.14 1012.9
8:58 am MDT W 4.6 10.00 Fair -- 82.0 53.2 37% NA 81 30.15 1013.5
7:58 am MDT N 0.0 10.00 Fair -- 75.0 57.2 54% NA NA 30.14 1013.1
6:58 am MDT N 0.0 10.00 Fair -- 70.0 57.2 64% NA NA 30.12 1012.7
5:58 am MDT N 0.0 10.00 Fair -- 70.0 57.6 64% NA NA 30.12 1012.5
4:58 am MDT NE 4.6 10.00 Fair -- 71.0 57.4 62% NA NA 30.12 1012.5
3:58 am MDT E 3.5 10.00 A Few Clouds -- 72.0 57.6 61% NA NA 30.12 1012.5
2:58 am MDT SW 3.5 10.00 Overcast -- 74.0 55.6 53% NA NA 30.12 1012.5
1:58 am MDT N 0.0 10.00 Partly Cloudy -- 78.0 55.8 47% NA NA 30.11 1012.1
12:58 am MDT NE 11.5 10.00 Fair -- 82.0 52.3 36% NA 81 30.10 1011.5
11:58 pm MDT NE 21.9 G 27.6 10.00 Fair and Breezy -- 81.0 53.2 38% NA 80 30.11 1012.1
7:58 pm MDT N 0.0 10.00 Fair -- 91.0 54.9 30% NA 89 30.05 1010.3
6:58 pm MDT N 3.5 10.00 Fair -- 92.0 53.6 27% NA 90 30.05 1010.5
5:58 pm MDT W 4.6 10.00 Fair -- 94.0 51.6 24% NA 91 30.04 1010.1
4:58 pm MDT N 6.9 10.00 Fair -- 94.0 50.4 23% NA 91 30.04 1010.1

Regional Weather Observation


Alamogordo-White, NM (KALM)

Fair
99.0 F

Las Cruces, Las Cruces International Airport, NM (KLRU)

Fair
100.0 F

Sierra Blanca Regional Airport, NM (KSRR)

Thunderstorm in Vicinity
84.0 F

Truth Or Consequences, Truth Or Consequences Municipal Airport, NM (KTCS)

Fair
99.0 F

Socorro Municipal Airport, NM (KONM)

Fair
97.0 F

Deming Municipal Airport, NM (KDMN)

Fair
101.0 F